KE7JVX-3 Weather Reports


time (UTC)temp
C
wind
direction
speed
KPH
gust
KPH
rain 1hr
cm
rain 24hr
cm
rain mn
cm
humidity
%
barometer
mb
20260902031406 16 319 4.8 8.0 0.00 0.00 0.00 20 1016.8
20260902030407 16 314 6.4 11.3 0.00 0.00 0.00 21 1016.6
20260902025406 16 305 6.4 11.3 0.00 0.00 0.00 22 1016.5
20260902024406 16 318 6.4 9.7 0.00 0.00 0.00 22 1016.5
20260902023406 16 318 6.4 11.3 0.00 0.00 0.00 23 1016.4
20260902022406 15 312 8.0 11.3 0.00 0.00 0.00 26 1016.3
20260902021406 15 316 6.4 11.3 0.00 0.00 0.00 34 1016.2
20260902020406 14 323 4.8 9.7 0.00 0.00 0.00 47 1016.1
20260902015406 14 320 4.8 11.3 0.00 0.00 0.00 59 1016.0
20260902014406 15 311 8.0 14.5 0.00 0.00 0.00 57 1016.0
20260902013406 15 318 6.4 14.5 0.00 0.00 0.00 55 1016.1
20260902012409 15 308 9.7 20.9 0.00 0.00 0.00 55 1016.2
20260902011406 16 307 9.7 20.9 0.00 0.00 0.00 56 1016.2
20260902010406 16 311 11.3 20.9 0.00 0.00 0.00 55 1016.1
20260902005407 16 310 14.5 20.9 0.00 0.00 0.00 54 1016.2
20260902004406 16 304 12.9 19.3 0.00 0.00 0.00 56 1016.2
20260902003406 16 300 12.9 20.9 0.00 0.00 0.00 53 1016.3
20260902002406 16 309 12.9 20.9 0.00 0.00 0.00 52 1016.4
20260902001406 17 306 12.9 22.5 0.00 0.00 0.00 55 1016.4
20260902000407 17 299 12.9 27.4 0.00 0.00 0.00 55 1016.4
20260901235406 17 302 8.0 20.9 0.00 0.00 0.00 53 1016.3
20260901234406 17 277 14.5 27.4 0.00 0.00 0.00 53 1016.3
20260901233406 17 289 12.9 22.5 0.00 0.00 0.00 48 1016.6
20260901231909 18 301 6.4 16.1 0.00 0.00 0.00 54 1016.7
20260901230909 17 295 4.8 17.7 0.00 0.00 0.00 51 1016.7
20260901225908 17 270 8.0 19.3 0.00 0.00 0.00 47 1016.8
20260901224408 17 302 8.0 16.1 0.00 0.00 0.00 52 1016.8
20260901223407 17 325 3.2 19.3 0.00 0.00 0.00 55 1016.9
20260901222407 17 326 8.0 14.5 0.00 0.00 0.00 49 1016.9
20260901221407 17 289 9.7 19.3 0.00 0.00 0.00 53 1017.0
20260901220407 18 325 6.4 16.1 0.00 0.00 0.00 51 1017.0
20260901215407 17 316 6.4 17.7 0.00 0.00 0.00 53 1017.1
20260901214407 18 279 6.4 20.9 0.00 0.00 0.00 55 1017.1
20260901213411 17 298 6.4 19.3 0.00 0.00 0.00 57 1017.2
20260901212407 17 296 3.2 17.7 0.00 0.00 0.00 59 1017.3
20260901211407 16 263 6.4 17.7 0.00 0.00 0.00 60 1017.4
20260901210407 16 273 6.4 17.7 0.00 0.00 0.00 60 1017.5
20260901205407 15 262 1.6 11.3 0.00 0.00 0.00 62 1017.6
20260901204407 15 0 0.0 12.9 0.00 0.00 0.00 63 1017.7
20260901203407 15 265 3.2 12.9 0.00 0.05 0.00 62 1017.7
20260901202407 15 280 4.8 11.3 0.00 0.05 0.00 62 1017.7
20260901201410 16 298 3.2 9.7 0.00 0.08 0.00 62 1017.7
20260901200408 15 0 0.0 11.3 0.00 0.10 0.00 63 1017.8
20260901195407 16 0 0.0 9.7 0.00 0.13 0.00 61 1017.9
20260901194407 15 0 0.0 11.3 0.00 0.15 0.00 63 1017.9
20260901193408 15 260 3.2 12.9 0.00 0.15 0.00 63 1017.9
20260901192407 16 205 3.2 12.9 0.00 0.15 0.00 62 1018.0
20260901191408 16 260 6.4 16.1 0.00 0.18 0.00 60 1018.0
20260901190410 16 252 6.4 12.9 0.00 0.20 0.00 63 1018.0
20260901185407 16 248 3.2 16.1 0.00 0.23 0.00 60 1018.1
20260901184408 16 228 6.4 14.5 0.00 0.28 0.00 61 1018.1
20260901183407 16 251 8.0 14.5 0.00 0.28 0.00 59 1018.0
20260901182407 16 248 4.8 11.3 0.00 0.28 0.00 56 1018.1
20260901181407 16 245 4.8 11.3 0.00 0.28 0.00 58 1018.0
20260901180408 15 281 3.2 9.7 0.00 0.28 0.00 59 1018.1
20260901175407 16 0 0.0 1.6 0.00 0.28 0.00 56 1018.1
20260901174407 15 0 0.0 6.4 0.00 0.28 0.00 59 1018.1
20260901173407 16 233 3.2 6.4 0.00 0.28 0.00 57 1018.1
20260901172408 15 233 1.6 6.4 0.00 0.28 0.00 60 1018.2
20260901171407 15 0 0.0 4.8 0.00 0.28 0.00 58 1018.1
20260901170407 15 254 3.2 9.7 0.00 0.30 0.00 59 1018.0
20260901165408 15 191 1.6 8.0 0.00 0.30 0.00 58 1018.0
20260901164407 15 279 1.6 6.4 0.00 0.30 0.00 56 1017.9
20260901163407 15 0 0.0 4.8 0.00 0.30 0.00 53 1017.7
20260901162407 15 0 0.0 6.4 0.00 0.30 0.00 55 1017.7
20260901161409 15 91 3.2 9.7 0.00 0.30 0.00 53 1017.6
20260901160407 15 44 1.6 6.4 0.00 0.30 0.00 54 1017.6
20260901155407 14 0 0.0 6.4 0.00 0.30 0.00 55 1017.5
20260901154407 15 0 0.0 6.4 0.00 0.30 0.00 54 1017.5
20260901153407 15 121 1.6 6.4 0.00 0.30 0.00 54 1017.4
20260901152407 15 91 1.6 9.7 0.00 0.30 0.00 54 1017.4
20260901151407 15 0 0.0 4.8 0.00 0.38 0.00 53 1017.3
20260901150407 14 65 4.8 11.3 0.00 0.43 0.00 53 1017.3
20260901145407 14 61 3.2 9.7 0.00 0.46 0.00 55 1017.3
20260901144408 13 42 3.2 9.7 0.00 0.51 0.00 56 1017.2
20260901143407 13 55 4.8 14.5 0.00 0.56 0.00 57 1017.1
20260901142407 13 55 1.6 8.0 0.00 0.61 0.00 56 1017.1
20260901141407 13 20 4.8 14.5 0.00 0.71 0.00 53 1017.1
20260901140409 12 33 4.8 12.9 0.00 0.81 0.00 53 1017.0
20260901135407 12 36 4.8 9.7 0.00 0.91 0.00 53 1016.9
20260901134407 12 21 6.4 12.9 0.00 0.99 0.00 54 1016.8
20260901133407 12 36 4.8 12.9 0.00 1.02 0.00 55 1016.7
20260901132407 12 352 3.2 9.7 0.00 1.04 0.00 54 1016.7
20260901131407 11 328 4.8 12.9 0.00 1.09 0.00 54 1016.6
20260901130407 11 334 4.8 14.5 0.00 1.17 0.00 54 1016.5
20260901125407 12 313 9.7 14.5 0.00 1.19 0.00 53 1016.5
20260901124407 12 322 6.4 12.9 0.00 1.19 0.00 53 1016.4
20260901123407 12 353 3.2 8.0 0.00 1.19 0.00 54 1016.3
20260901122407 12 21 4.8 11.3 0.00 1.19 0.00 54 1016.3
20260901121407 12 24 4.8 11.3 0.00 1.19 0.00 50 1016.2
20260901120407 12 45 3.2 11.3 0.00 1.19 0.00 49 1016.2
20260901115407 12 19 4.8 11.3 0.00 1.19 0.00 51 1016.2
20260901114407 12 37 4.8 9.7 0.00 1.19 0.00 50 1016.1
20260901113408 12 30 3.2 8.0 0.00 1.22 0.00 52 1016.2
20260901112407 12 8 3.2 8.0 0.00 1.24 0.00 52 1016.2
20260901111408 12 347 3.2 11.3 0.00 1.32 0.00 51 1016.2
20260901110407 12 329 4.8 12.9 0.00 1.37 0.00 51 1016.2
20260901105407 12 341 6.4 16.1 0.00 1.37 0.00 50 1016.2
20260901104408 12 324 8.0 14.5 0.00 1.37 0.00 49 1016.2
20260901103409 12 317 9.7 14.5 0.00 1.37 0.00 47 1016.2
20260901102407 12 320 8.0 16.1 0.00 1.37 0.00 45 1016.3
20260901101407 12 316 8.0 12.9 0.00 1.37 0.00 43 1016.2
20260901100407 12 326 6.4 14.5 0.00 1.37 0.00 42 1016.2
20260901095407 13 327 3.2 11.3 0.00 1.37 0.00 41 1016.3
20260901094407 13 317 1.6 8.0 0.00 1.37 0.00 40 1016.3
20260901093407 13 344 3.2 11.3 0.00 1.37 0.00 40 1016.3
20260901092408 13 329 4.8 12.9 0.00 1.37 0.00 39 1016.3
20260901091407 13 327 6.4 14.5 0.00 1.37 0.00 40 1016.4
20260901090407 13 325 6.4 14.5 0.00 1.37 0.00 41 1016.3
20260901085407 13 326 6.4 12.9 0.00 1.37 0.00 40 1016.4
20260901084407 12 347 1.6 8.0 0.00 1.37 0.00 41 1016.4
20260901083407 12 323 4.8 9.7 0.00 1.37 0.00 43 1016.5
20260901082407 12 316 6.4 11.3 0.00 1.37 0.00 43 1016.6
20260901081407 13 319 4.8 12.9 0.00 1.37 0.00 42 1016.5
20260901080407 13 324 6.4 12.9 0.00 1.37 0.00 39 1016.5
20260901075407 13 324 4.8 11.3 0.00 1.37 0.00 39 1016.6
20260901074407 13 317 6.4 12.9 0.00 1.37 0.00 40 1016.6
20260901073533 13 314 8.0 12.9 0.00 1.37 0.00 42 1016.8
20260901073407 13 314 8.0 12.9 0.00 1.37 0.00 42 1016.8
20260901071408 13 314 8.0 12.9 0.00 1.37 0.00 39 1016.8
20260901070408 13 308 9.7 12.9 0.00 1.37 0.00 41 1016.8
20260901065408 13 308 8.0 12.9 0.00 1.37 0.00 42 1016.8
20260901064408 13 304 9.7 16.1 0.00 1.37 0.00 41 1016.7
20260901063408 13 309 9.7 12.9 0.00 1.37 0.00 40 1016.6
20260901062408 13 299 6.4 11.3 0.00 1.37 0.00 38 1016.7
20260901061408 13 314 4.8 8.0 0.00 1.37 0.00 39 1016.6
20260901060408 13 312 6.4 11.3 0.00 1.37 0.00 38 1016.6
20260901055408 13 297 3.2 9.7 0.00 1.37 0.00 38 1016.6
20260901054409 13 268 6.4 9.7 0.00 1.37 0.00 39 1016.5
20260901053408 13 268 3.2 6.4 0.00 1.37 0.00 40 1016.6
20260901052408 13 262 4.8 6.4 0.00 1.37 0.00 42 1016.7
20260901051408 12 238 4.8 6.4 0.00 1.37 0.00 46 1016.7
20260901050408 12 201 1.6 6.4 0.00 1.37 0.00 47 1016.6
20260901045408 12 201 3.2 6.4 0.00 1.37 0.00 48 1016.7
20260901044409 12 0 0.0 6.4 0.00 1.37 0.00 46 1016.6
20260901043408 12 0 0.0 4.8 0.00 1.37 0.00 48 1016.6
20260901042408 12 201 3.2 8.0 0.00 1.37 0.00 48 1016.5
20260901041408 12 191 6.4 9.7 0.00 1.37 0.00 48 1016.5
20260901040408 12 189 6.4 11.3 0.00 1.37 0.00 48 1016.4
20260901035408 12 211 6.4 9.7 0.00 1.37 0.00 49 1016.4
20260901034408 12 211 6.4 9.7 0.00 1.37 0.00 49 1016.5
20260901033408 12 211 4.8 8.0 0.00 1.37 0.00 49 1016.5
20260901032408 12 211 4.8 8.0 0.00 1.37 0.00 49 1016.3